Location: Lane
(33.5226°N, 79.8788°W)
Time: 19:12:04
(UTC+00:00)

Explorer 11/Cluster Stage 4 - Pass Details

Date: 07 October 2022
Orbit: 466 x 1247 km, 28.8° (Epoch: 01 December)

Event Time Altitude Azimuth Distance (km) Brightness Sun altitude
Rises 14:37:04 0° 239° (WSW) 4,001 10.0 37.1°
Reaches altitude 10° 14:39:56 10° 233° (SW) 3,110 9.6 37.6°
Maximum altitude 14:47:27 46° 163° (SSE) 1,612 9.7 38.7°
Drops below altitude 10° 14:55:06 10° 93° (E) 3,172 10.4 39.9°
Sets 14:58:03 0° 88° (E) 4,087 10.7 40.3°
